User: anonymous   Login
Location: Passau
(48.5830°N, 13.4830°E)
Time: 20:08:34
(UTC+01:00)
Language:

ITAMSAT 1 - Orbit

View from above orbital plane
View from above orbital plane
View from above satellite
View from above satellite

Ground track
Ground track

The orbit data is extracted from the following two-line orbital elements,

1 22826U 93061D   21340.76802048  .00000006  00000-0  20365-4 0  9990
2 22826  98.9014   2.4229 0008116 236.4168 123.6239 14.30475410470868
Epoch (UTC): 06 December 2021 18:25:56
Eccentricity: 0.0008116
inclination: 98.9014°
perigee height: 784 km
apogee height: 796 km
right ascension of ascending node: 2.4229°
argument of perigee: 236.4168°
revolutions per day: 14.30475410
mean anomaly at epoch: 123.6239°
orbit number at epoch: 47086

The dashed part of the orbit path shows where the satellite is in the earth's shadow,  

DLR